Weather History for KSGJ - May, 2014

Change the Weather History Date:

Tuesday, May 6, 2014

  Actual Average Record
Temperature  
Mean Temperature 75 °F -  
Max Temperature 84 °F 78 °F 93 °F (2012)
Min Temperature 66 °F 62 °F 52 °F (1988)
Cooling Degree Days 10    
Growing Degree Days 25 (Base 50)    
Moisture  
Dew Point 60 °F    
Average Humidity 59    
Maximum Humidity 81    
Minimum Humidity 37    
Precipitation  
Precipitation 0.00 in - - ()
Sea Level Pressure  
Sea Level Pressure 30.03 in    
Wind  
Wind Speed 7 mph (SSW)    
Max Wind Speed 15 mph    
Max Gust Speed -    
Visibility 10 miles    
Events      
Averages and records for this station are not official NWS values.
T = Trace of Precipitation, MM = Missing Value Source: NWS Daily Summary

Daily Weather History Graph

Daily Weather History Graph

Search for Another Location

Airport or City:

Trip Planner

Search our weather history database for the weather conditions in past years. The results will help you decide how hot, cold, wet, or windy it might be!

Date:

Astronomy

May. 06, 2014 Rise Set
Actual Time 6:38 AM EDT 8:05 PM EDT
Civil Twilight 6:12 AM EDT 8:31 PM EDT
Nautical Twilight 5:42 AM EDT 9:02 PM EDT
Astronomical Twilight 5:10 AM EDT 9:34 PM EDT
Moon 12:48 PM EDT (5/6) 1:28 AM EDT (5/6)
Length of Visible Light 14h 18m
Length of Day
13h 27m
Waxing Crescent, 46% of the Moon is Illuminated
May 6
Waxing Crescent
May 6
First Quarter
May 14
Full
May 21
Last Quarter
May 28
New

Hourly Weather History & Observations

Time (EDT) Temp. Heat Index Dew Point Humidity Pressure Visibility Wind Dir Wind Speed Gust Speed Precip Events Conditions
12:58 AM 68.0 °F - 57.9 °F 70% 30.02 in 10.0 mi SW 4.6 mph - N/A   Clear
1:58 AM 66.9 °F - 59.0 °F 76% 30.01 in 10.0 mi SW 5.8 mph - N/A   Clear
2:58 AM 66.0 °F - 60.1 °F 81% 29.99 in 10.0 mi WSW 6.9 mph - N/A   Clear
7:58 AM 66.9 °F - 59.0 °F 76% 30.05 in 10.0 mi WSW 3.5 mph - N/A   Clear
8:58 AM 72.0 °F - 59.0 °F 64% 30.06 in 10.0 mi WNW 6.9 mph - N/A   Clear
9:58 AM 77.0 °F - 57.9 °F 52% 30.06 in 10.0 mi WNW 8.1 mph - N/A   Clear
10:58 AM 81.0 °F 81.0 °F 57.0 °F 44% 30.06 in 10.0 mi West 3.5 mph - N/A   Clear
11:58 AM 84.0 °F 82.9 °F 55.0 °F 37% 30.06 in 10.0 mi NW 6.9 mph - N/A   Clear
12:58 PM 82.0 °F 83.1 °F 63.0 °F 52% 30.05 in 10.0 mi East 8.1 mph - N/A   Clear
1:58 PM 81.0 °F 82.2 °F 63.0 °F 54% 30.04 in 10.0 mi ESE 9.2 mph - N/A   Clear
2:58 PM 82.0 °F 83.0 °F 62.1 °F 51% 30.02 in 10.0 mi ESE 10.4 mph - N/A   Clear
4:58 PM 82.9 °F 83.3 °F 61.0 °F 47% 29.99 in 10.0 mi SE 11.5 mph - N/A   Clear
5:58 PM 82.0 °F 82.4 °F 60.1 °F 47% 29.99 in 10.0 mi SSE 11.5 mph - N/A   Clear
6:58 PM 79.0 °F - 59.0 °F 50% 29.99 in 10.0 mi SSE 15.0 mph - N/A   Clear
7:58 PM 75.9 °F - 60.1 °F 58% 30.00 in 10.0 mi SSE 9.2 mph - N/A   Clear
8:58 PM 75.0 °F - 62.1 °F 64% 30.01 in 10.0 mi South 8.1 mph - N/A   Clear
9:58 PM 75.0 °F - 63.0 °F 66% 30.02 in 10.0 mi South 9.2 mph - N/A   Clear
10:58 PM 73.9 °F - 63.0 °F 68% 30.04 in 10.0 mi South 8.1 mph - N/A   Clear
11:58 PM 72.0 °F - 62.1 °F 71% 30.04 in 10.0 mi South 5.8 mph - N/A   Clear